Location: Fauquembergues
(50.6005°N, 2.0987°E)
Time: 04:43:46
(UTC+00:00)

ADEOS II - Pass Details

Date: 14 July 2020
Orbit: 799 x 801 km, 98.5° (Epoch: 06 August)

Event Time Altitude Azimuth Distance (km) Brightness Sun altitude
Rises 02:56:17 0° 11° (NNE) 3,323 6.5 -7.7°
Reaches altitude 10° 02:58:40 10° 8° (N) 2,388 5.5 -7.5°
Maximum altitude 03:03:48 56° 291° (WNW) 953 2.4 -7.0°
Drops below altitude 10° 03:08:55 10° 215° (SW) 2,371 3.9 -6.4°
Enters shadow 03:09:33 - 213° (SSW) 2,617 4.1 -6.3°
